Weather History for KLTS - December, 2012

Change the Weather History Date:

Tuesday, December 25, 2012

  Actual Average Record
Temperature  
Mean Temperature 26 °F -  
Max Temperature 35 °F 49 °F 65 °F (2008)
Min Temperature 17 °F 25 °F 17 °F (2012)
Degree Days  
Heating Degree Days 39    
Moisture  
Dew Point 18 °F    
Average Humidity 83    
Maximum Humidity 93    
Minimum Humidity 58    
Precipitation  
Precipitation 0.07 in - - ()
Sea Level Pressure  
Sea Level Pressure 30.07 in    
Wind  
Wind Speed 25 mph (North)    
Max Wind Speed 34 mph    
Max Gust Speed 40 mph    
Visibility 4 miles    
Events Fog , Rain , Snow    
Averages and records for this station are not official NWS values.
T = Trace of Precipitation, MM = Missing Value Source: NWS Daily Summary

Daily Weather History Graph

Daily Weather History Graph

Search for Another Location

Airport or City:

Trip Planner

Search our weather history database for the weather conditions in past years. The results will help you decide how hot, cold, wet, or windy it might be!

Date:

Astronomy

Dec. 25, 2012 Rise Set
Actual Time 7:42 AM CST 5:32 PM CST
Civil Twilight 7:14 AM CST 6:00 PM CST
Nautical Twilight 6:42 AM CST 6:32 PM CST
Astronomical Twilight 6:12 AM CST 7:03 PM CST
Moon 3:40 PM CST (12/25) 5:17 AM CST (12/25)
Length of Visible Light 10h 46m
Length of Day
9h 50m
Waxing Gibbous, 94% of the Moon is Illuminated
Dec 25
Waxing Gibbous
Dec 28
Full
Jan 4
Last Quarter
Jan 11
New
Jan 18
First Quarter

Hourly Weather History & Observations

Time (CST) Temp. Windchill Dew Point Humidity Pressure Visibility Wind Dir Wind Speed Gust Speed Precip Events Conditions
12:55 AM 35.2 °F 25.0 °F 21.6 °F 58% 29.80 in 10.0 mi NE 17.3 mph - N/A   Mostly Cloudy
1:55 AM 35.1 °F 25.2 °F 22.5 °F 60% 29.83 in 10.0 mi NE 16.1 mph - N/A   Overcast
2:55 AM 33.6 °F 21.6 °F 22.6 °F 64% 29.82 in 10.0 mi NNE 21.9 mph 27.6 mph N/A   Overcast
3:55 AM 30.2 °F 16.8 °F 20.1 °F 66% 29.83 in 10.0 mi NNE 23.0 mph 28.8 mph N/A   Overcast
4:55 AM 28.2 °F 13.9 °F 19.9 °F 71% 29.83 in 10.0 mi NNE 24.2 mph 32.2 mph N/A   Clear
5:29 AM 26.6 °F 12.7 °F 19.4 °F 74% 29.87 in 10.0 mi North 20.7 mph 26.5 mph N/A   Mostly Cloudy
5:55 AM 27.7 °F 12.8 °F 19.8 °F 72% 29.88 in 10.0 mi North 25.3 mph 29.9 mph N/A   Overcast
6:07 AM 26.6 °F 11.4 °F 19.4 °F 74% 29.88 in 10.0 mi North 25.3 mph 29.9 mph N/A   Overcast
6:48 AM 26.6 °F 9.3 °F 17.6 °F 69% 29.87 in 10.0 mi North 34.5 mph 39.1 mph N/A   Overcast
6:55 AM 26.2 °F 9.1 °F 17.4 °F 69% 29.87 in 10.0 mi NNE 33.4 mph 39.1 mph N/A   Overcast
7:55 AM 24.8 °F 9.3 °F 16.9 °F 72% 29.91 in 10.0 mi North 24.2 mph 32.2 mph N/A   Overcast
8:25 AM 24.8 °F 6.8 °F 17.6 °F 74% 29.91 in 10.0 mi North 34.5 mph 40.3 mph N/A   Overcast
8:55 AM 23.7 °F 6.7 °F 18.0 °F 79% 29.94 in 10.0 mi North 28.8 mph 38.0 mph N/A   Overcast
9:19 AM 23.0 °F 7.2 °F 19.4 °F 86% 29.96 in 8.0 mi North 23.0 mph 35.7 mph N/A   Overcast
9:22 AM 23.0 °F 6.6 °F 19.4 °F 86% 29.96 in 8.0 mi North 25.3 mph 35.7 mph N/A   Ice Pellets
9:55 AM 22.6 °F 4.9 °F 18.9 °F 85% 29.98 in 3.0 mi North 29.9 mph 36.8 mph 0.01 in Snow Blowing Snow
10:13 AM 23.0 °F 5.7 °F 17.6 °F 80% 30.01 in 3.0 mi North 28.8 mph 35.7 mph N/A Snow Light Snow
10:22 AM 23.0 °F 5.4 °F 17.6 °F 80% 30.02 in 3.0 mi North 29.9 mph 38.0 mph N/A Rain Light Freezing Rain
10:23 AM 23.0 °F 5.7 °F 17.6 °F 80% 30.02 in 2.5 mi North 28.8 mph 38.0 mph N/A Rain Light Freezing Rain
10:34 AM 23.0 °F 6.6 °F 19.4 °F 86% 30.03 in 2.5 mi North 25.3 mph 34.5 mph N/A Rain Light Freezing Rain
10:47 AM 23.0 °F 6.3 °F 19.4 °F 86% 30.04 in 3.0 mi North 26.5 mph 34.5 mph N/A Snow Light Snow
10:55 AM 22.5 °F 5.0 °F 18.5 °F 85% 30.04 in 3.0 mi North 28.8 mph 34.5 mph 0.04 in Snow Light Snow
11:05 AM 23.0 °F 6.0 °F 19.4 °F 86% 30.05 in 1.8 mi North 27.6 mph 35.7 mph N/A Snow Light Snow
11:08 AM 23.0 °F 6.6 °F 17.6 °F 80% 30.06 in 1.2 mi North 25.3 mph 35.7 mph N/A Snow Light Snow
11:15 AM 23.0 °F 6.9 °F 17.6 °F 80% 30.06 in 1.0 mi North 24.2 mph 38.0 mph N/A Snow Light Snow
11:18 AM 23.0 °F 7.6 °F 19.4 °F 86% 30.06 in 1.0 mi North 21.9 mph 38.0 mph N/A Snow Light Snow
11:24 AM 23.0 °F 5.4 °F 19.4 °F 86% 30.06 in 0.8 mi North 29.9 mph 36.8 mph N/A Snow Light Snow
11:26 AM 21.2 °F 3.0 °F 19.4 °F 93% 30.06 in 0.8 mi North 29.9 mph 36.8 mph N/A Snow Light Snow
11:36 AM 21.2 °F 4.9 °F 19.4 °F 93% 30.07 in 0.8 mi North 23.0 mph 31.1 mph N/A Snow Light Snow
11:37 AM 21.2 °F 4.9 °F 19.4 °F 93% 30.07 in 0.8 mi North 23.0 mph 31.1 mph N/A Snow Light Snow
11:40 AM 21.2 °F 5.2 °F 19.4 °F 93% 30.07 in 0.5 mi North 21.9 mph 31.1 mph N/A Fog , Snow Light Freezing Fog
11:43 AM 21.2 °F 3.9 °F 19.4 °F 93% 30.06 in 0.5 mi North 26.5 mph 29.9 mph N/A Fog , Snow Light Freezing Fog
11:44 AM 21.2 °F 3.9 °F 19.4 °F 93% 30.06 in 0.5 mi North 26.5 mph 29.9 mph N/A Fog , Snow Light Freezing Fog
11:55 AM 21.7 °F 4.6 °F 19.6 °F 91% 30.07 in 0.2 mi North 26.5 mph 35.7 mph 0.01 in Fog , Snow Heavy Freezing Fog
11:56 AM 21.2 °F 4.9 °F 19.4 °F 93% 30.07 in 0.2 mi NNW 23.0 mph 35.7 mph N/A Fog , Snow Heavy Freezing Fog
12:01 PM 21.2 °F 3.3 °F 19.4 °F 93% 30.06 in 0.2 mi North 28.8 mph 33.4 mph N/A Fog , Snow Heavy Freezing Fog
12:13 PM 21.2 °F 4.9 °F 19.4 °F 93% 30.07 in 0.2 mi NNW 23.0 mph - N/A Fog , Snow Light Freezing Fog
12:24 PM 21.2 °F 4.9 °F 19.4 °F 93% 30.07 in 0.2 mi North 23.0 mph - N/A Fog , Snow Heavy Freezing Fog
12:25 PM 21.2 °F 4.5 °F 19.4 °F 93% 30.07 in 0.5 mi NNW 24.2 mph - N/A Fog , Snow Light Freezing Fog
12:28 PM 21.2 °F 4.2 °F 19.4 °F 93% 30.07 in 0.5 mi North 25.3 mph 31.1 mph N/A Fog , Snow Light Freezing Fog
12:30 PM 21.2 °F 4.5 °F 19.4 °F 93% 30.07 in 0.5 mi NNW 24.2 mph 31.1 mph N/A Fog , Snow Light Freezing Fog
12:39 PM 21.2 °F 3.3 °F 19.4 °F 93% 30.06 in 0.5 mi North 28.8 mph - N/A Fog , Snow Light Freezing Fog
12:42 PM 21.2 °F 4.5 °F 19.4 °F 93% 30.07 in 0.5 mi North 24.2 mph 29.9 mph N/A Fog , Snow Light Freezing Fog
12:45 PM 21.2 °F 4.2 °F 19.4 °F 93% 30.07 in 0.5 mi North 25.3 mph - N/A Fog , Snow Light Freezing Fog
12:46 PM 21.2 °F 3.5 °F 19.4 °F 93% 30.06 in 0.8 mi North 27.6 mph 39.1 mph N/A Snow Light Snow
12:47 PM 21.2 °F 3.0 °F 19.4 °F 93% 30.06 in 0.8 mi North 29.9 mph 39.1 mph N/A Snow Light Snow
12:55 PM 21.7 °F 4.0 °F 19.4 °F 91% 30.06 in 0.8 mi North 28.8 mph 39.1 mph 0.01 in Snow Light Snow
12:56 PM 21.2 °F 4.5 °F 19.4 °F 93% 30.07 in 0.8 mi North 24.2 mph 39.1 mph N/A Snow Light Snow
12:58 PM 21.2 °F 4.9 °F 19.4 °F 93% 30.07 in 1.0 mi NNW 23.0 mph 32.2 mph N/A Snow Light Snow
1:01 PM 21.2 °F 5.2 °F 19.4 °F 93% 30.07 in 1.2 mi NNW 21.9 mph 32.2 mph N/A Snow Light Snow
1:03 PM 21.2 °F 4.2 °F 19.4 °F 93% 30.07 in 1.5 mi NNW 25.3 mph 31.1 mph N/A Snow Light Snow
1:08 PM 21.2 °F 3.3 °F 19.4 °F 93% 30.07 in 1.2 mi North 28.8 mph - N/A Snow Light Snow
1:15 PM 21.2 °F 3.5 °F 19.4 °F 93% 30.07 in 1.2 mi North 27.6 mph 34.5 mph N/A Snow Light Snow
1:16 PM 21.2 °F 3.3 °F 19.4 °F 93% 30.07 in 1.0 mi North 28.8 mph 35.7 mph N/A Snow Light Snow
1:22 PM 21.2 °F 3.9 °F 19.4 °F 93% 30.07 in 1.0 mi North 26.5 mph 35.7 mph N/A Snow Light Snow
1:28 PM 21.2 °F 3.9 °F 19.4 °F 93% 30.07 in 1.0 mi North 26.5 mph 32.2 mph N/A Snow Light Snow
1:33 PM 23.0 °F 6.3 °F 19.4 °F 86% 30.07 in 0.8 mi North 26.5 mph 31.1 mph N/A Snow Light Snow
1:35 PM 23.0 °F 6.0 °F 19.4 °F 86% 30.07 in 0.8 mi North 27.6 mph 32.2 mph N/A Snow Light Snow
1:39 PM 21.2 °F 3.3 °F 19.4 °F 93% 30.06 in 0.5 mi North 28.8 mph 34.5 mph N/A Fog , Snow Light Freezing Fog
1:41 PM 21.2 °F 4.2 °F 19.4 °F 93% 30.07 in 0.5 mi North 25.3 mph 34.5 mph N/A Fog , Snow Light Freezing Fog
1:42 PM 21.2 °F 4.5 °F 19.4 °F 93% 30.07 in 0.5 mi NNW 24.2 mph 34.5 mph N/A Fog , Snow Light Freezing Fog
1:55 PM 22.1 °F 5.7 °F 19.9 °F 91% 30.07 in 0.5 mi North 24.2 mph 34.5 mph 0.00 in Fog , Snow Light Freezing Fog
2:00 PM 23.0 °F 6.6 °F 19.4 °F 86% 30.07 in 0.5 mi North 25.3 mph 34.5 mph N/A Fog , Snow Light Freezing Fog
2:01 PM 23.0 °F 6.6 °F 19.4 °F 86% 30.07 in 0.8 mi North 25.3 mph 34.5 mph N/A Snow Light Snow
2:03 PM 23.0 °F 5.7 °F 19.4 °F 86% 30.07 in 0.8 mi North 28.8 mph 34.5 mph N/A Snow Light Snow
2:06 PM 23.0 °F 6.9 °F 19.4 °F 86% 30.07 in 0.8 mi North 24.2 mph 34.5 mph N/A Snow Light Snow
2:07 PM 23.0 °F 6.3 °F 19.4 °F 86% 30.07 in 1.0 mi North 26.5 mph 34.5 mph N/A Snow Light Snow
2:10 PM 23.0 °F 6.3 °F 19.4 °F 86% 30.07 in 1.2 mi North 26.5 mph 34.5 mph N/A Snow Light Snow
2:15 PM 23.0 °F 6.9 °F 19.4 °F 86% 30.07 in 1.5 mi North 24.2 mph 34.5 mph N/A Snow Light Snow
2:24 PM 23.0 °F 5.7 °F 19.4 °F 86% 30.07 in 1.5 mi North 28.8 mph 32.2 mph N/A Snow Light Snow
2:26 PM 23.0 °F 5.4 °F 19.4 °F 86% 30.07 in 1.2 mi North 29.9 mph 39.1 mph N/A Snow Light Snow
2:31 PM 23.0 °F 5.4 °F 19.4 °F 86% 30.07 in 1.0 mi North 29.9 mph 39.1 mph N/A Snow Light Snow
2:35 PM 23.0 °F 4.9 °F 19.4 °F 86% 30.07 in 0.8 mi North 32.2 mph 39.1 mph N/A Snow Light Snow
2:36 PM 23.0 °F 5.4 °F 19.4 °F 86% 30.07 in 0.8 mi North 29.9 mph 39.1 mph N/A Snow Light Snow
2:46 PM 23.0 °F 6.3 °F 19.4 °F 86% 30.08 in 1.2 mi North 26.5 mph 36.8 mph N/A Snow Light Snow
2:55 PM 22.6 °F 5.8 °F 19.0 °F 86% 30.08 in 1.5 mi North 26.5 mph 31.1 mph 0.00 in Snow Light Snow
2:59 PM 23.0 °F 4.9 °F 19.4 °F 86% 30.07 in 1.5 mi North 32.2 mph 35.7 mph N/A Snow Light Snow
3:01 PM 23.0 °F 4.9 °F 19.4 °F 86% 30.07 in 1.2 mi North 32.2 mph 39.1 mph N/A Snow Light Snow
3:04 PM 23.0 °F 5.1 °F 19.4 °F 86% 30.07 in 1.2 mi North 31.1 mph 39.1 mph N/A Snow Light Snow
3:07 PM 23.0 °F 5.1 °F 19.4 °F 86% 30.08 in 1.0 mi North 31.1 mph 39.1 mph N/A Snow Light Snow
3:16 PM 23.0 °F 5.7 °F 17.6 °F 80% 30.09 in 0.8 mi North 28.8 mph 36.8 mph N/A Snow Light Snow
3:17 PM 23.0 °F 5.4 °F 17.6 °F 80% 30.08 in 1.0 mi North 29.9 mph 36.8 mph N/A Snow Light Snow
3:21 PM 23.0 °F 6.0 °F 17.6 °F 80% 30.09 in 1.2 mi North 27.6 mph 34.5 mph N/A Snow Light Snow
3:24 PM 23.0 °F 6.3 °F 17.6 °F 80% 30.09 in 1.5 mi North 26.5 mph 35.7 mph N/A Snow Light Snow
3:27 PM 23.0 °F 5.7 °F 17.6 °F 80% 30.09 in 2.0 mi North 28.8 mph 35.7 mph N/A Snow Light Snow
3:34 PM 23.0 °F 5.4 °F 17.6 °F 80% 30.09 in 1.8 mi North 29.9 mph 35.7 mph N/A Snow Light Snow
3:41 PM 23.0 °F 6.9 °F 17.6 °F 80% 30.09 in 2.0 mi North 24.2 mph 35.7 mph N/A Snow Light Snow
3:45 PM 23.0 °F 5.1 °F 17.6 °F 80% 30.09 in 1.8 mi North 31.1 mph - N/A Snow Light Snow
3:55 PM 22.3 °F 5.3 °F 17.8 °F 83% 30.10 in 1.5 mi North 26.5 mph 36.8 mph 0.00 in Snow Light Snow
3:56 PM 23.0 °F 6.0 °F 17.6 °F 80% 30.10 in 2.0 mi North 27.6 mph 36.8 mph N/A Snow Light Snow
4:11 PM 23.0 °F 6.3 °F 17.6 °F 80% 30.12 in 3.0 mi North 26.5 mph 31.1 mph N/A Snow Light Snow
4:14 PM 23.0 °F 6.0 °F 17.6 °F 80% 30.12 in 3.0 mi North 27.6 mph - N/A Snow Light Snow
4:36 PM 23.0 °F 7.6 °F 17.6 °F 80% 30.14 in 10.0 mi North 21.9 mph 29.9 mph N/A Rain Light Freezing Rain
4:37 PM 23.0 °F 6.6 °F 17.6 °F 80% 30.13 in 9.0 mi North 25.3 mph 29.9 mph N/A Rain Light Freezing Rain
4:55 PM 23.2 °F 6.8 °F 17.6 °F 79% 30.14 in 7.0 mi North 25.3 mph 29.9 mph 0.00 in Rain Light Freezing Rain
4:58 PM 23.0 °F 8.3 °F 17.6 °F 80% 30.15 in 9.0 mi North 19.6 mph - N/A Rain Light Freezing Rain
5:05 PM 23.0 °F 8.3 °F 17.6 °F 80% 30.16 in 10.0 mi North 19.6 mph - N/A   Light Freezing Rain
5:25 PM 23.0 °F 8.0 °F 17.6 °F 80% 30.17 in 10.0 mi NNW 20.7 mph - N/A   Light Freezing Rain
5:33 PM 23.0 °F 8.7 °F 17.6 °F 80% 30.17 in 10.0 mi North 18.4 mph - N/A   Light Freezing Rain
5:44 PM 23.0 °F 7.6 °F 17.6 °F 80% 30.18 in 10.0 mi North 21.9 mph - N/A   Light Freezing Rain
5:55 PM 23.4 °F 7.4 °F 16.9 °F 76% 30.18 in 10.0 mi North 24.2 mph - 0.00 in   Light Freezing Rain
5:57 PM 23.0 °F 7.6 °F 17.6 °F 80% 30.19 in 10.0 mi North 21.9 mph - N/A   Light Freezing Rain
6:36 PM 23.0 °F 8.7 °F 15.8 °F 74% 30.20 in 10.0 mi NNW 18.4 mph - N/A   Scattered Clouds
6:55 PM 21.9 °F 6.9 °F 15.3 °F 76% 30.20 in 10.0 mi North 19.6 mph - 0.00 in   Partly Cloudy
7:44 PM 21.2 °F 4.5 °F 14.0 °F 74% 30.22 in 10.0 mi North 24.2 mph 28.8 mph N/A   Light Freezing Rain
7:55 PM 21.6 °F 6.5 °F 14.2 °F 73% 30.22 in 10.0 mi NNW 19.6 mph - 0.00 in   Light Freezing Rain
8:55 PM 20.7 °F 4.9 °F 12.9 °F 72% 30.27 in 10.0 mi NNW 20.7 mph - 0.00 in   Scattered Clouds
9:08 PM 21.2 °F 3.5 °F 14.0 °F 74% 30.27 in 8.0 mi NNW 27.6 mph 32.2 mph N/A   Light Freezing Rain
9:31 PM 19.4 °F 2.1 °F 14.0 °F 80% 30.27 in 10.0 mi NNW 24.2 mph 29.9 mph N/A   Overcast
9:55 PM 19.4 °F 2.8 °F 12.7 °F 75% 30.29 in 10.0 mi NNW 21.9 mph 27.6 mph 0.00 in   Overcast
10:55 PM 17.6 °F 0.5 °F 11.3 °F 76% 30.31 in 10.0 mi NNW 21.9 mph - N/A   Clear
11:21 PM 17.6 °F 1.3 °F 10.4 °F 73% 30.32 in 10.0 mi NNW 19.6 mph - N/A   Mostly Cloudy
11:55 PM 18.0 °F 3.1 °F 10.8 °F 73% 30.33 in 10.0 mi NW 16.1 mph - N/A   Overcast